contact:dominique.lefevre@mio.osupytheas.fr, maurice.libes@osupytheas.fr, didier.mallarino@osupytheas.fr
Project:EMSO http://www.emso-fr.org/EMSO-France
Depth: 2436.0 m
Title:EMSO Ligure Ouest : Data MII capteur OXYGEN
DateTime,Latitude,Longitude,Optode-Type,Optode_Serial,Oxygen,Saturation_Oxygen,Temperature
DateTime,Latitude,Longitude,Optode-Type,Optode_Serial,µmol.l-1,%,degC
2019-07-12T07:41:02,42.805,6.029,4330,1995,193.347,59.128,13.288
2019-07-12T07:44:02,42.805,6.029,4330,1995,193.326,59.123,13.289
2019-07-12T07:47:02,42.805,6.029,4330,1995,193.332,59.125,13.289
2019-07-12T07:50:02,42.805,6.029,4330,1995,193.340,59.128,13.289
2019-07-12T07:53:02,42.805,6.029,4330,1995,193.375,59.138,13.289
2019-07-12T07:56:02,42.805,6.029,4330,1995,193.322,59.122,13.289
2019-07-12T07:59:02,42.805,6.029,4330,1995,193.315,59.119,13.289
2019-07-12T08:02:02,42.805,6.029,4330,1995,193.383,59.140,13.289
2019-07-12T08:05:02,42.805,6.029,4330,1995,193.463,59.164,13.289
2019-07-12T08:08:02,42.805,6.029,4330,1995,193.402,59.146,13.289
2019-07-12T08:11:02,42.805,6.029,4330,1995,193.376,59.138,13.289
2019-07-12T08:14:02,42.805,6.029,4330,1995,193.385,59.140,13.289
2019-07-12T08:17:02,42.805,6.029,4330,1995,193.411,59.149,13.289
2019-07-12T08:20:02,42.805,6.029,4330,1995,193.348,59.130,13.289
2019-07-12T08:23:02,42.805,6.029,4330,1995,193.342,59.128,13.289
2019-07-12T08:26:02,42.805,6.029,4330,1995,193.346,59.129,13.289
2019-07-12T08:29:02,42.805,6.029,4330,1995,193.491,59.173,13.289
2019-07-12T08:32:02,42.805,6.029,4330,1995,193.524,59.184,13.289
2019-07-12T08:35:02,42.805,6.029,4330,1995,193.496,59.176,13.290
2019-07-12T08:38:02,42.805,6.029,4330,1995,193.416,59.152,13.290
2019-07-12T08:41:02,42.805,6.029,4330,1995,193.329,59.125,13.290
2019-07-12T08:44:02,42.805,6.029,4330,1995,193.170,59.076,13.290
2019-07-12T08:47:02,42.805,6.029,4330,1995,193.242,59.098,13.290
2019-07-12T08:50:02,42.805,6.029,4330,1995,193.153,59.071,13.289
2019-07-12T08:53:02,42.805,6.029,4330,1995,193.237,59.096,13.289
2019-07-12T08:56:02,42.805,6.029,4330,1995,193.318,59.121,13.289
2019-07-12T08:59:02,42.805,6.029,4330,1995,193.288,59.112,13.289
2019-07-12T09:02:02,42.805,6.029,4330,1995,193.374,59.138,13.289
2019-07-12T09:05:02,42.805,6.029,4330,1995,193.402,59.147,13.289
2019-07-12T09:08:02,42.805,6.029,4330,1995,193.360,59.134,13.289
2019-07-12T09:11:02,42.805,6.029,4330,1995,193.362,59.135,13.289
2019-07-12T09:14:02,42.805,6.029,4330,1995,193.454,59.163,13.290
2019-07-12T09:17:02,42.805,6.029,4330,1995,193.470,59.168,13.290
2019-07-12T09:20:02,42.805,6.029,4330,1995,193.440,59.159,13.290
2019-07-12T09:23:02,42.805,6.029,4330,1995,193.463,59.167,13.290
2019-07-12T09:26:02,42.805,6.029,4330,1995,193.419,59.154,13.291
2019-07-12T09:29:02,42.805,6.029,4330,1995,193.197,59.086,13.291
2019-07-12T09:32:02,42.805,6.029,4330,1995,193.192,59.086,13.292
2019-07-12T09:35:02,42.805,6.029,4330,1995,193.219,59.092,13.290
2019-07-12T09:38:02,42.805,6.029,4330,1995,193.271,59.109,13.291
2019-07-12T09:41:02,42.805,6.029,4330,1995,193.243,59.100,13.291
2019-07-12T09:44:02,42.805,6.029,4330,1995,193.178,59.081,13.291
2019-07-12T09:47:02,42.805,6.029,4330,1995,193.208,59.091,13.292
2019-07-12T09:50:02,42.805,6.029,4330,1995,193.190,59.083,13.290
2019-07-12T09:53:02,42.805,6.029,4330,1995,193.050,59.041,13.291
2019-07-12T09:56:02,42.805,6.029,4330,1995,193.095,59.057,13.292
2019-07-12T09:59:02,42.805,6.029,4330,1995,192.970,59.016,13.290
2019-07-12T10:02:02,42.805,6.029,4330,1995,193.149,59.070,13.290
2019-07-12T10:05:02,42.805,6.029,4330,1995,193.201,59.087,13.291
2019-07-12T10:08:02,42.805,6.029,4330,1995,193.068,59.046,13.290
2019-07-12T10:11:02,42.805,6.029,4330,1995,192.978,59.018,13.290
2019-07-12T10:17:02,42.805,6.029,4330,1995,192.975,59.017,13.290
2019-07-12T10:20:02,42.805,6.029,4330,1995,192.834,58.975,13.291
2019-07-12T10:23:02,42.805,6.029,4330,1995,192.897,58.995,13.292
2019-07-12T10:26:02,42.805,6.029,4330,1995,192.885,58.991,13.291
2019-07-12T10:29:02,42.805,6.029,4330,1995,192.970,59.016,13.291
2019-07-12T10:32:02,42.805,6.029,4330,1995,192.866,58.985,13.291
2019-07-12T10:35:02,42.805,6.029,4330,1995,192.936,59.009,13.293
2019-07-12T10:38:02,42.805,6.029,4330,1995,192.826,58.973,13.291
2019-07-12T10:41:02,42.805,6.029,4330,1995,192.906,58.998,13.291
2019-07-12T10:44:02,42.805,6.029,4330,1995,192.912,58.999,13.291
2019-07-12T10:47:02,42.805,6.029,4330,1995,192.946,59.009,13.290
2019-07-12T10:50:02,42.805,6.029,4330,1995,192.908,58.997,13.290
2019-07-12T10:53:02,42.805,6.029,4330,1995,192.908,58.997,13.290
2019-07-12T10:56:02,42.805,6.029,4330,1995,192.962,59.013,13.290
2019-07-12T10:59:02,42.805,6.029,4330,1995,193.007,59.028,13.291
2019-07-12T11:02:02,42.805,6.029,4330,1995,192.958,59.013,13.291
2019-07-12T11:05:02,42.805,6.029,4330,1995,192.833,58.974,13.291
2019-07-12T11:08:02,42.805,6.029,4330,1995,192.704,58.934,13.290
2019-07-12T11:11:02,42.805,6.029,4330,1995,192.867,58.984,13.290
2019-07-12T11:14:02,42.805,6.029,4330,1995,192.882,58.991,13.292
2019-07-12T11:17:02,42.805,6.029,4330,1995,192.862,58.983,13.291
2019-07-12T11:20:02,42.805,6.029,4330,1995,192.860,58.982,13.290
2019-07-12T11:23:02,42.805,6.029,4330,1995,192.837,58.976,13.291
2019-07-12T11:26:02,42.805,6.029,4330,1995,192.745,58.948,13.291
2019-07-12T11:29:02,42.805,6.029,4330,1995,192.599,58.903,13.291
2019-07-12T11:32:02,42.805,6.029,4330,1995,192.679,58.925,13.289
2019-07-12T11:35:02,42.805,6.029,4330,1995,192.717,58.938,13.290
2019-07-12T11:38:02,42.805,6.029,4330,1995,192.700,58.932,13.289
2019-07-12T11:41:02,42.805,6.029,4330,1995,192.710,58.935,13.289
2019-07-12T11:44:02,42.805,6.029,4330,1995,192.740,58.945,13.289
2019-07-12T11:47:02,42.805,6.029,4330,1995,192.737,58.944,13.290
2019-07-12T11:50:02,42.805,6.029,4330,1995,192.686,58.930,13.291
2019-07-12T11:53:02,42.805,6.029,4330,1995,192.580,58.898,13.291
2019-07-12T11:56:02,42.805,6.029,4330,1995,192.604,58.905,13.291
2019-07-12T11:59:02,42.805,6.029,4330,1995,192.608,58.905,13.290
2019-07-12T12:02:02,42.805,6.029,4330,1995,192.536,58.882,13.290
2019-07-12T12:05:02,42.805,6.029,4330,1995,192.608,58.905,13.290
2019-07-12T12:08:02,42.805,6.029,4330,1995,192.694,58.932,13.291
2019-07-12T12:11:02,42.805,6.029,4330,1995,192.719,58.942,13.292
2019-07-12T12:14:02,42.805,6.029,4330,1995,192.703,58.939,13.294
2019-07-12T12:17:02,42.805,6.029,4330,1995,192.726,58.944,13.293
2019-07-12T12:20:02,42.805,6.029,4330,1995,192.677,58.929,13.292
2019-07-12T12:23:02,42.805,6.029,4330,1995,192.688,58.933,13.293
2019-07-12T12:26:02,42.805,6.029,4330,1995,192.733,58.947,13.293
2019-07-12T12:29:02,42.805,6.029,4330,1995,192.693,58.935,13.293
2019-07-12T12:32:02,42.805,6.029,4330,1995,192.742,58.947,13.291
2019-07-12T12:35:02,42.805,6.029,4330,1995,192.796,58.965,13.292
2019-07-12T12:38:02,42.805,6.029,4330,1995,192.672,58.931,13.295
2019-07-12T12:41:02,42.805,6.029,4330,1995,192.763,58.957,13.294
2019-07-12T12:44:02,42.805,6.029,4330,1995,192.759,58.955,13.293
2019-07-12T12:50:02,42.805,6.029,4330,1995,192.735,58.942,13.289
2019-07-12T12:53:02,42.805,6.029,4330,1995,192.925,58.999,13.288
2019-07-12T12:56:02,42.805,6.029,4330,1995,192.717,58.939,13.291
2019-07-12T12:59:02,42.805,6.029,4330,1995,192.652,58.921,13.292
2019-07-12T13:02:02,42.805,6.029,4330,1995,192.778,58.960,13.292
2019-07-12T13:05:02,42.805,6.029,4330,1995,192.624,58.914,13.293
2019-07-12T13:08:02,42.805,6.029,4330,1995,192.731,58.946,13.293
2019-07-12T13:11:02,42.805,6.029,4330,1995,192.998,59.027,13.292
2019-07-12T13:14:02,42.805,6.029,4330,1995,192.970,59.018,13.291
2019-07-12T13:17:02,42.805,6.029,4330,1995,192.893,58.995,13.292
2019-07-12T13:20:02,42.805,6.029,4330,1995,192.870,58.989,13.293
2019-07-12T13:23:02,42.805,6.029,4330,1995,192.969,59.018,13.292
2019-07-12T13:26:02,42.805,6.029,4330,1995,192.985,59.023,13.292
2019-07-12T13:29:02,42.805,6.029,4330,1995,192.925,59.005,13.292
2019-07-12T13:32:02,42.805,6.029,4330,1995,192.917,59.004,13.293
2019-07-12T13:35:02,42.805,6.029,4330,1995,192.971,59.018,13.292
2019-07-12T13:38:02,42.805,6.029,4330,1995,192.920,59.004,13.293
2019-07-12T13:41:02,42.805,6.029,4330,1995,192.945,59.013,13.294
2019-07-12T13:44:02,42.805,6.029,4330,1995,192.873,58.991,13.294
2019-07-12T13:47:02,42.805,6.029,4330,1995,192.834,58.976,13.292
2019-07-12T13:50:02,42.805,6.029,4330,1995,192.934,59.009,13.293
2019-07-12T13:53:02,42.805,6.029,4330,1995,192.929,59.005,13.292
2019-07-12T13:56:02,42.805,6.029,4330,1995,193.004,59.029,13.293
2019-07-12T13:59:02,42.805,6.029,4330,1995,193.075,59.051,13.292
2019-07-12T14:02:02,42.805,6.029,4330,1995,193.074,59.051,13.293
2019-07-12T14:05:02,42.805,6.029,4330,1995,192.999,59.028,13.293
2019-07-12T14:08:02,42.805,6.029,4330,1995,192.926,59.004,13.292
2019-07-12T14:11:02,42.805,6.029,4330,1995,193.002,59.028,13.292
2019-07-12T14:14:02,42.805,6.029,4330,1995,193.037,59.040,13.293
2019-07-12T14:17:02,42.805,6.029,4330,1995,192.997,59.028,13.293
2019-07-12T14:20:02,42.805,6.029,4330,1995,192.941,59.008,13.291
2019-07-12T14:23:02,42.805,6.029,4330,1995,193.098,59.056,13.291
2019-07-12T14:26:02,42.805,6.029,4330,1995,193.076,59.050,13.291
2019-07-12T14:29:02,42.805,6.029,4330,1995,192.999,59.026,13.291
2019-07-12T14:32:02,42.805,6.029,4330,1995,193.115,59.061,13.291
2019-07-12T14:35:02,42.805,6.029,4330,1995,192.955,59.011,13.290
2019-07-12T14:38:02,42.805,6.029,4330,1995,193.048,59.040,13.290
2019-07-12T14:41:02,42.805,6.029,4330,1995,193.084,59.050,13.290
2019-07-12T14:44:02,42.805,6.029,4330,1995,193.091,59.051,13.289
2019-07-12T14:47:02,42.805,6.029,4330,1995,193.069,59.046,13.290
2019-07-12T14:50:02,42.805,6.029,4330,1995,193.069,59.045,13.290
2019-07-12T14:53:02,42.805,6.029,4330,1995,193.068,59.045,13.290
2019-07-12T14:56:02,42.805,6.029,4330,1995,193.111,59.059,13.290
2019-07-12T14:59:02,42.805,6.029,4330,1995,193.084,59.049,13.289
2019-07-12T15:02:02,42.805,6.029,4330,1995,193.106,59.056,13.289
2019-07-12T15:05:02,42.805,6.029,4330,1995,193.118,59.062,13.291
2019-07-12T15:08:02,42.805,6.029,4330,1995,193.186,59.081,13.289
2019-07-12T15:11:02,42.805,6.029,4330,1995,193.215,59.089,13.289
2019-07-12T15:14:02,42.805,6.029,4330,1995,193.147,59.069,13.290
2019-07-12T15:17:02,42.805,6.029,4330,1995,193.107,59.057,13.290
2019-07-12T15:20:02,42.805,6.029,4330,1995,193.180,59.079,13.289
2019-07-12T15:26:02,42.805,6.029,4330,1995,193.177,59.076,13.288
2019-07-12T15:29:02,42.805,6.029,4330,1995,193.214,59.089,13.289
2019-07-12T15:32:02,42.805,6.029,4330,1995,193.156,59.074,13.291
2019-07-12T15:35:02,42.805,6.029,4330,1995,193.135,59.065,13.289
2019-07-12T15:38:02,42.805,6.029,4330,1995,193.103,59.056,13.290
2019-07-12T15:41:02,42.805,6.029,4330,1995,193.127,59.063,13.290
2019-07-12T15:44:02,42.805,6.029,4330,1995,193.171,59.077,13.290
2019-07-12T15:47:02,42.805,6.029,4330,1995,193.170,59.076,13.290
2019-07-12T15:50:02,42.805,6.029,4330,1995,193.120,59.061,13.289
2019-07-12T15:53:02,42.805,6.029,4330,1995,193.143,59.068,13.290
2019-07-12T15:56:02,42.805,6.029,4330,1995,193.182,59.079,13.289
2019-07-12T15:59:02,42.805,6.029,4330,1995,193.210,59.089,13.290
2019-07-12T16:02:02,42.805,6.029,4330,1995,193.122,59.061,13.289
2019-07-12T16:05:02,42.805,6.029,4330,1995,193.190,59.082,13.289
2019-07-12T16:08:02,42.805,6.029,4330,1995,193.138,59.065,13.289
2019-07-12T16:11:02,42.805,6.029,4330,1995,193.064,59.043,13.289
2019-07-12T16:14:02,42.805,6.029,4330,1995,193.235,59.095,13.289
2019-07-12T16:17:02,42.805,6.029,4330,1995,193.054,59.039,13.288
2019-07-12T16:20:02,42.805,6.029,4330,1995,193.121,59.061,13.289
2019-07-12T16:23:02,42.805,6.029,4330,1995,193.077,59.048,13.289
2019-07-12T16:26:02,42.805,6.029,4330,1995,193.001,59.024,13.290
2019-07-12T16:29:02,42.805,6.029,4330,1995,193.093,59.053,13.290
2019-07-12T16:32:02,42.805,6.029,4330,1995,193.081,59.049,13.289
2019-07-12T16:35:02,42.805,6.029,4330,1995,193.051,59.040,13.290
2019-07-12T16:38:02,42.805,6.029,4330,1995,192.889,58.990,13.289
2019-07-12T16:41:02,42.805,6.029,4330,1995,192.853,58.980,13.290
2019-07-12T16:44:02,42.805,6.029,4330,1995,192.864,58.983,13.290
2019-07-12T16:47:02,42.805,6.029,4330,1995,193.001,59.025,13.290
2019-07-12T16:50:02,42.805,6.029,4330,1995,192.825,58.971,13.290
2019-07-12T16:53:02,42.805,6.029,4330,1995,192.800,58.963,13.290
2019-07-12T16:56:02,42.805,6.029,4330,1995,192.837,58.975,13.290
2019-07-12T16:59:02,42.805,6.029,4330,1995,192.850,58.980,13.291
2019-07-12T17:02:02,42.805,6.029,4330,1995,192.840,58.976,13.290
2019-07-12T17:05:02,42.805,6.029,4330,1995,192.928,59.003,13.290
2019-07-12T17:08:02,42.805,6.029,4330,1995,192.938,59.007,13.291
2019-07-12T17:11:02,42.805,6.029,4330,1995,192.864,58.985,13.291
2019-07-12T17:14:02,42.805,6.029,4330,1995,192.878,58.988,13.291
2019-07-12T17:17:02,42.805,6.029,4330,1995,192.855,58.981,13.290
2019-07-12T17:20:02,42.805,6.029,4330,1995,192.999,59.026,13.291
2019-07-12T17:23:02,42.805,6.029,4330,1995,192.922,59.001,13.290
2019-07-12T17:26:02,42.805,6.029,4330,1995,192.928,59.003,13.290
2019-07-12T17:29:02,42.805,6.029,4330,1995,192.936,59.005,13.290
2019-07-12T17:32:02,42.805,6.029,4330,1995,192.905,58.996,13.290
2019-07-12T17:35:02,42.805,6.029,4330,1995,192.898,58.995,13.291
2019-07-12T17:38:02,42.805,6.029,4330,1995,192.819,58.969,13.290
2019-07-12T17:41:02,42.805,6.029,4330,1995,192.787,58.960,13.290
2019-07-12T17:44:02,42.805,6.029,4330,1995,192.855,58.981,13.290
2019-07-12T17:47:02,42.805,6.029,4330,1995,192.856,58.980,13.290
2019-07-12T17:50:02,42.805,6.029,4330,1995,192.860,58.982,13.290
2019-07-12T17:53:02,42.805,6.029,4330,1995,192.828,58.972,13.290
2019-07-12T17:56:02,42.805,6.029,4330,1995,192.905,58.996,13.290
2019-07-12T18:02:02,42.805,6.029,4330,1995,192.920,58.997,13.288
2019-07-12T18:05:02,42.805,6.029,4330,1995,192.922,59.000,13.290
2019-07-12T18:08:02,42.805,6.029,4330,1995,193.000,59.025,13.290
2019-07-12T18:11:02,42.805,6.029,4330,1995,193.007,59.027,13.290
2019-07-12T18:14:02,42.805,6.029,4330,1995,193.117,59.061,13.290
2019-07-12T18:17:02,42.805,6.029,4330,1995,193.093,59.053,13.290
2019-07-12T18:20:02,42.805,6.029,4330,1995,193.064,59.046,13.291
2019-07-12T18:23:02,42.805,6.029,4330,1995,193.236,59.098,13.291
2019-07-12T18:26:02,42.805,6.029,4330,1995,193.145,59.070,13.291
2019-07-12T18:29:02,42.805,6.029,4330,1995,193.234,59.097,13.290
2019-07-12T18:32:02,42.805,6.029,4330,1995,193.272,59.108,13.290
2019-07-12T18:35:02,42.805,6.029,4330,1995,193.324,59.123,13.290
2019-07-12T18:38:02,42.805,6.029,4330,1995,193.338,59.128,13.290
2019-07-12T18:41:02,42.805,6.029,4330,1995,193.361,59.135,13.290
2019-07-12T18:44:02,42.805,6.029,4330,1995,193.345,59.130,13.290
2019-07-12T18:47:02,42.805,6.029,4330,1995,193.394,59.145,13.290
2019-07-12T18:50:02,42.805,6.029,4330,1995,193.469,59.167,13.289
2019-07-12T18:53:02,42.805,6.029,4330,1995,193.527,59.185,13.290
2019-07-12T18:56:02,42.805,6.029,4330,1995,193.551,59.192,13.289
2019-07-12T18:59:02,42.805,6.029,4330,1995,193.597,59.206,13.289
2019-07-12T19:02:02,42.805,6.029,4330,1995,193.614,59.211,13.289
2019-07-12T19:05:02,42.805,6.029,4330,1995,193.624,59.214,13.289
2019-07-12T19:08:02,42.805,6.029,4330,1995,193.608,59.209,13.289
2019-07-12T19:11:02,42.805,6.029,4330,1995,193.701,59.237,13.289
2019-07-12T19:14:02,42.805,6.029,4330,1995,193.673,59.229,13.289
2019-07-12T19:17:02,42.805,6.029,4330,1995,193.678,59.230,13.288
2019-07-12T19:20:02,42.805,6.029,4330,1995,193.676,59.230,13.288
2019-07-12T19:23:02,42.805,6.029,4330,1995,193.747,59.251,13.288
2019-07-12T19:26:02,42.805,6.029,4330,1995,193.743,59.250,13.288
2019-07-12T19:29:02,42.805,6.029,4330,1995,193.749,59.252,13.288
2019-07-12T19:32:02,42.805,6.029,4330,1995,193.784,59.263,13.289
2019-07-12T19:35:02,42.805,6.029,4330,1995,193.775,59.260,13.289
2019-07-12T19:38:02,42.805,6.029,4330,1995,193.712,59.240,13.289
2019-07-12T19:41:02,42.805,6.029,4330,1995,193.753,59.253,13.289
2019-07-12T19:44:02,42.805,6.029,4330,1995,193.783,59.262,13.289
2019-07-12T19:47:02,42.805,6.029,4330,1995,193.735,59.249,13.289
2019-07-12T19:50:02,42.805,6.029,4330,1995,193.779,59.261,13.289
2019-07-12T19:53:02,42.805,6.029,4330,1995,193.818,59.273,13.289
2019-07-12T19:56:02,42.805,6.029,4330,1995,193.798,59.267,13.289
2019-07-12T19:59:02,42.805,6.029,4330,1995,193.828,59.276,13.289
2019-07-12T20:02:02,42.805,6.029,4330,1995,193.814,59.272,13.289
2019-07-12T20:05:02,42.805,6.029,4330,1995,193.745,59.252,13.289
2019-07-12T20:08:02,42.805,6.029,4330,1995,193.821,59.274,13.289
2019-07-12T20:11:02,42.805,6.029,4330,1995,193.828,59.277,13.289
2019-07-12T20:14:02,42.805,6.029,4330,1995,193.771,59.260,13.290
2019-07-12T20:17:02,42.805,6.029,4330,1995,193.754,59.255,13.290
2019-07-12T20:20:02,42.805,6.029,4330,1995,193.794,59.267,13.289
2019-07-12T20:23:02,42.805,6.029,4330,1995,193.805,59.270,13.289
2019-07-12T20:26:02,42.805,6.029,4330,1995,193.780,59.262,13.289
2019-07-12T20:29:02,42.805,6.029,4330,1995,193.812,59.273,13.290
2019-07-12T20:35:02,42.805,6.029,4330,1995,193.754,59.255,13.289
2019-07-12T20:38:02,42.805,6.029,4330,1995,193.800,59.266,13.288
2019-07-12T20:41:02,42.805,6.029,4330,1995,193.817,59.273,13.289
2019-07-12T20:44:02,42.805,6.029,4330,1995,193.791,59.265,13.289
2019-07-12T20:47:02,42.805,6.029,4330,1995,193.765,59.257,13.289
2019-07-12T20:50:02,42.805,6.029,4330,1995,193.795,59.267,13.289
2019-07-12T20:53:02,42.805,6.029,4330,1995,193.740,59.250,13.289
2019-07-12T20:56:02,42.805,6.029,4330,1995,193.754,59.254,13.289
2019-07-12T20:59:02,42.805,6.029,4330,1995,193.755,59.255,13.290
2019-07-12T21:02:02,42.805,6.029,4330,1995,193.814,59.273,13.289
2019-07-12T21:05:02,42.805,6.029,4330,1995,193.705,59.240,13.290
2019-07-12T21:08:02,42.805,6.029,4330,1995,193.729,59.247,13.290
2019-07-12T21:11:02,42.805,6.029,4330,1995,193.685,59.234,13.290
2019-07-12T21:14:02,42.805,6.029,4330,1995,193.711,59.241,13.289
2019-07-12T21:17:02,42.805,6.029,4330,1995,193.798,59.268,13.289
2019-07-12T21:20:02,42.805,6.029,4330,1995,193.761,59.258,13.290
2019-07-12T21:23:02,42.805,6.029,4330,1995,193.722,59.246,13.290
2019-07-12T21:26:02,42.805,6.029,4330,1995,193.743,59.253,13.290
2019-07-12T21:29:02,42.805,6.029,4330,1995,193.703,59.240,13.291
2019-07-12T21:32:02,42.805,6.029,4330,1995,193.762,59.258,13.290
2019-07-12T21:35:02,42.805,6.029,4330,1995,193.711,59.243,13.291
2019-07-12T21:38:02,42.805,6.029,4330,1995,193.730,59.249,13.290
2019-07-12T21:41:02,42.805,6.029,4330,1995,193.722,59.246,13.291
2019-07-12T21:44:02,42.805,6.029,4330,1995,193.687,59.235,13.290
2019-07-12T21:47:02,42.805,6.029,4330,1995,193.751,59.255,13.290
2019-07-12T21:50:02,42.805,6.029,4330,1995,193.671,59.230,13.290
2019-07-12T21:53:02,42.805,6.029,4330,1995,193.585,59.204,13.291
2019-07-12T21:56:02,42.805,6.029,4330,1995,193.514,59.182,13.290
2019-07-12T21:59:02,42.805,6.029,4330,1995,193.672,59.230,13.290
2019-07-12T22:02:02,42.805,6.029,4330,1995,193.640,59.220,13.290
2019-07-12T22:05:02,42.805,6.029,4330,1995,193.674,59.232,13.290
2019-07-12T22:08:02,42.805,6.029,4330,1995,193.603,59.209,13.290
2019-07-12T22:11:02,42.805,6.029,4330,1995,193.599,59.208,13.290
2019-07-12T22:14:02,42.805,6.029,4330,1995,193.620,59.213,13.289
2019-07-12T22:17:02,42.805,6.029,4330,1995,193.626,59.215,13.289
2019-07-12T22:20:02,42.805,6.029,4330,1995,193.603,59.208,13.289
2019-07-12T22:23:02,42.805,6.029,4330,1995,193.557,59.194,13.289
2019-07-12T22:26:02,42.805,6.029,4330,1995,193.542,59.190,13.289
2019-07-12T22:29:02,42.805,6.029,4330,1995,193.521,59.183,13.289
2019-07-12T22:32:02,42.805,6.029,4330,1995,193.572,59.198,13.289
2019-07-12T22:35:02,42.805,6.029,4330,1995,193.582,59.201,13.289
2019-07-12T22:38:02,42.805,6.029,4330,1995,193.640,59.219,13.289
2019-07-12T22:41:02,42.805,6.029,4330,1995,193.569,59.198,13.289
2019-07-12T22:44:02,42.805,6.029,4330,1995,193.527,59.185,13.289
2019-07-12T22:47:02,42.805,6.029,4330,1995,193.505,59.178,13.289
2019-07-12T22:50:02,42.805,6.029,4330,1995,193.525,59.184,13.289
2019-07-12T22:53:02,42.805,6.029,4330,1995,193.549,59.192,13.289
2019-07-12T22:56:02,42.805,6.029,4330,1995,193.528,59.185,13.289
2019-07-12T22:59:02,42.805,6.029,4330,1995,193.422,59.153,13.289
2019-07-12T23:02:02,42.805,6.029,4330,1995,193.470,59.167,13.289
2019-07-12T23:05:02,42.805,6.029,4330,1995,193.547,59.191,13.289
2019-07-12T23:11:02,42.805,6.029,4330,1995,193.553,59.193,13.289
2019-07-12T23:14:02,42.805,6.029,4330,1995,193.514,59.181,13.290
2019-07-12T23:17:02,42.805,6.029,4330,1995,193.535,59.188,13.290
2019-07-12T23:20:02,42.805,6.029,4330,1995,193.489,59.174,13.290
2019-07-12T23:23:02,42.805,6.029,4330,1995,193.514,59.183,13.290
2019-07-12T23:26:02,42.805,6.029,4330,1995,193.446,59.161,13.290
2019-07-12T23:29:02,42.805,6.029,4330,1995,193.383,59.141,13.289
2019-07-12T23:32:02,42.805,6.029,4330,1995,193.381,59.141,13.290
2019-07-12T23:35:02,42.805,6.029,4330,1995,193.440,59.158,13.289
2019-07-12T23:38:02,42.805,6.029,4330,1995,193.454,59.163,13.290
2019-07-12T23:41:02,42.805,6.029,4330,1995,193.462,59.165,13.289
2019-07-12T23:44:02,42.805,6.029,4330,1995,193.433,59.156,13.289
2019-07-12T23:47:02,42.805,6.029,4330,1995,193.387,59.143,13.290
2019-07-12T23:50:02,42.805,6.029,4330,1995,193.444,59.160,13.290
2019-07-12T23:53:02,42.805,6.029,4330,1995,193.374,59.138,13.289
2019-07-12T23:56:02,42.805,6.029,4330,1995,193.390,59.142,13.289
2019-07-12T23:59:02,42.805,6.029,4330,1995,193.396,59.146,13.290
